Regional Weather Roundup
Issued by NWS

Home | Current Version | Previous Version | Graphics & Text | Print | Product List | Glossary On
Versions: 1 2 3 4 5 6 7 8 9 10 11 12 13 14 15 16 17 18 19 20 21 22 23 24 25 26 27 28 29 30 31 32 33 34 35 36 37 38 39 40 41 42 43 44 45 46 47 48 49 50
203
ASUS45 KCYS 161910
RWRWY

WYOMING REGIONAL WEATHER ROUNDUP
NATIONAL WEATHER SERVICE CHEYENNE WY
100 PM MDT MON OCT 16 2017

NOTE:  "FAIR" INDICATES FEW OR NO CLOUDS BELOW 12,000 FEET
WITH NO SIGNIFICANT WEATHER AND/OR OBSTRUCTIONS TO VISIBILITY.

WYZ001-162000-
YELLOWSTONE NATIONAL PARK

CITY           SKY/WX    TMP DP  RH WIND       PRES   REMARKS
LK YELLOWSTONE   N/A     47  24  40 VRB5      30.45F
W YELLOWSTONE  NOT AVBL

$$
WYZ002>013-054>058-071-098>099-162000-
NORTHERN WYOMING

CITY           SKY/WX    TMP DP  RH WIND       PRES   REMARKS
JACKSON        FAIR      44  26  49 VRB3      30.43F
CODY           FAIR      67  13  12 W14G22    30.22F
GREYBULL       FAIR      61  29  29 S6        30.22F
WORLAND        FAIR      59  32  36 VRB3      30.22F
SHERIDAN       FAIR      74  26  16 NW7       30.14F
BUFFALO        FAIR      68  16  13 VRB5      30.20S
GILLETTE       FAIR      69  20  15 VRB5      30.16F
HULETT         FAIR      66  28  24 SW9       30.16F
NEWCASTLE      FAIR      61  28  29 W7        30.17F

$$
WYZ014>020-022>026-101>103-162000-
CENTRAL WYOMING

CITY           SKY/WX    TMP DP  RH WIND       PRES   REMARKS
BIG PINEY      FAIR      53  20  27 VRB6      30.41F
PINEDALE       FAIR      57   9  14 NW5       30.41F
DUBOIS         FAIR      59   9  13 N21G30    30.33S
LANDER         FAIR      60  24  25 CALM      30.27S
RIVERTON       FAIR      52  31  44 CALM      30.27F
CASPER         FAIR      62  15  16 SW20      30.26S
DOUGLAS        FAIR      71  10   9 NW29G37   30.20F

$$
WYZ021-027>030-104>119-162000-
SOUTHERN WYOMING

CITY           SKY/WX    TMP DP  RH WIND       PRES   REMARKS
EVANSTON       FAIR      61   7  11 SW13      30.44F
KEMMERER       FAIR      55   3  12 W17G24    30.44F
FORT BRIDGER   FAIR      65   2   8 W13G23    30.46F
ROCK SPRINGS   FAIR      59   1   9 W15G23    30.41F
DIXON          FAIR      63   6  10 W12G18    30.45F
RAWLINS        FAIR      61   4  10 SW22G31   30.37F
SARATOGA       FAIR      63   3   9 W21G31    30.39F
LARAMIE        FAIR      66   0   7 W22G32    30.33F
CHEYENNE       FAIR      71   4   7 W24G35    30.27F
TORRINGTON     FAIR      74  10   8 W16G25    30.16F
PINE BLUFFS    FAIR      72  10   9 W21       30.23F

$$




USA.gov is the U.S. government's official web portal to all federal, state and local government web resources and services.